Weather History for Fort Payne, AL

Change the Weather History Date:

Sunday, April 21, 2013

  Actual Average (KRMG) Record (KRMG)
Temperature  
Mean Temperature 50 °F 61 °F  
Max Temperature 68 °F 74 °F 90 °F (2002)
Min Temperature 33 °F 48 °F 38 °F (2013)
Degree Days  
Heating Degree Days 14 5  
Month to date heating degree days 150  
Since 1 July heating degree days 3177  
Cooling Degree Days 0 1  
Month to date cooling degree days 17  
Year to date cooling degree days 21  
Moisture  
Dew Point 32 °F    
Average Humidity 46    
Maximum Humidity 93    
Minimum Humidity 23    
Precipitation  
Precipitation 0.06 in 0.15 in 0.94 in (2011)
Month to date precipitation 2.61  
Year to date precipitation 17.25  
Sea Level Pressure  
Sea Level Pressure 30.27 in    
Wind  
Wind Speed 1 mph (East)    
Max Wind Speed 10 mph    
Max Gust Speed 20 mph    
Visibility 10 miles    
Events      
T = Trace of Precipitation, MM = Missing Value Source: NWS Daily Summary

Daily Weather History Graph

Daily Weather History Graph

Search for Another Location

Airport:

Trip Planner

Search our weather history database for the weather conditions in past years. The results will help you decide how hot, cold, wet, or windy it might be!

Date:

Astronomy

Apr. 21, 2013 Rise Set
Actual Time 6:03 AM CDT 7:19 PM CDT
Civil Twilight 5:37 AM CDT 7:46 PM CDT
Nautical Twilight 5:06 AM CDT 8:17 PM CDT
Astronomical Twilight 4:33 AM CDT 8:50 PM CDT
Moon 3:14 PM CDT (4/21) 3:14 AM CDT (4/21)
Length of Visible Light 14h 08m
Length of Day
13h 15m
Waxing Gibbous, 80% of the Moon is Illuminated
Apr 21
Waxing Gibbous
Apr 25
Full
May 2
Last Quarter
May 9
New
May 17
First Quarter

Hourly Weather History & Observations

Time (CDT) Temp. Dew Point Humidity Pressure Visibility Wind Dir Wind Speed Gust Speed Precip Events Conditions
12:15 AM 37.4 °F 33.8 °F 87% 30.27 in 10.0 mi Calm Calm - N/A   Clear
12:35 AM 39.2 °F 35.6 °F 87% 30.27 in 10.0 mi Calm Calm - N/A   Clear
12:55 AM 37.4 °F 33.8 °F 87% 30.27 in 10.0 mi Calm Calm - N/A   Clear
1:15 AM 37.4 °F 33.8 °F 87% 30.28 in 10.0 mi Calm Calm - N/A   Clear
1:35 AM 37.4 °F 33.8 °F 87% 30.27 in 10.0 mi Calm Calm - N/A   Clear
4:15 AM 33.8 °F 32.0 °F 93% 30.27 in 10.0 mi Calm Calm - N/A   Clear
4:35 AM 33.8 °F 32.0 °F 93% 30.28 in 10.0 mi Calm Calm - N/A   Clear
4:55 AM 35.6 °F 32.0 °F 87% 30.28 in 10.0 mi Calm Calm - N/A   Clear
5:15 AM 35.6 °F 33.8 °F 93% 30.28 in 10.0 mi Calm Calm - N/A   Clear
5:35 AM 35.6 °F 33.8 °F 93% 30.28 in 10.0 mi Calm Calm - N/A   Clear
5:55 AM 37.4 °F 32.0 °F 81% 30.28 in 10.0 mi Calm Calm - N/A   Clear
6:15 AM 37.4 °F 32.0 °F 81% 30.29 in 10.0 mi Calm Calm - N/A   Clear
6:35 AM 37.4 °F 32.0 °F 81% 30.30 in 10.0 mi Calm Calm - N/A   Clear
6:55 AM 39.2 °F 33.8 °F 81% 30.30 in 10.0 mi Calm Calm - N/A   Clear
7:15 AM 42.8 °F 32.0 °F 66% 30.31 in 10.0 mi Calm Calm - N/A   Clear
7:35 AM 46.4 °F 32.0 °F 57% 30.31 in 10.0 mi Calm Calm - N/A   Clear
7:55 AM 46.4 °F 32.0 °F 57% 30.31 in 10.0 mi Calm Calm - N/A   Clear
8:15 AM 48.2 °F 33.8 °F 58% 30.32 in 10.0 mi Calm Calm - N/A   Clear
8:35 AM 50.0 °F 33.8 °F 54% 30.32 in 10.0 mi Calm Calm - N/A   Clear
8:55 AM 51.8 °F 33.8 °F 50% 30.32 in 10.0 mi Calm Calm - N/A   Clear
9:15 AM 53.6 °F 32.0 °F 44% 30.32 in 10.0 mi East 3.5 mph - N/A   Clear
9:35 AM 55.4 °F 28.4 °F 36% 30.33 in 7.0 mi ENE 6.9 mph 16.1 mph N/A   Clear
9:55 AM 59.0 °F 32.0 °F 36% 30.33 in 7.0 mi Calm Calm - N/A   Clear
10:15 AM 60.8 °F 32.0 °F 34% 30.33 in 7.0 mi Calm Calm - N/A   Clear
10:35 AM 60.8 °F 32.0 °F 34% 30.33 in 5.0 mi ESE 9.2 mph - N/A   Haze
10:55 AM 60.8 °F 32.0 °F 34% 30.33 in 10.0 mi Calm Calm - N/A   Clear
11:15 AM 60.8 °F 32.0 °F 34% 30.33 in 10.0 mi Calm Calm - N/A   Clear
11:35 AM 62.6 °F 30.2 °F 30% 30.32 in 10.0 mi Calm Calm - N/A   Clear
11:55 AM 62.6 °F 30.2 °F 30% 30.32 in 10.0 mi ESE 5.8 mph - N/A   Clear
12:15 PM 62.6 °F 30.2 °F 30% 30.31 in 10.0 mi Calm Calm - 0.05 in   Clear
12:35 PM 64.4 °F 30.2 °F 28% 30.30 in 10.0 mi ESE 6.9 mph - 0.05 in   Clear
12:55 PM 64.4 °F 32.0 °F 30% 30.29 in 10.0 mi Calm Calm - 0.05 in   Clear
1:15 PM 64.4 °F 32.0 °F 30% 30.28 in 10.0 mi ENE 10.4 mph 16.1 mph N/A   Clear
1:35 PM 64.4 °F 32.0 °F 30% 30.28 in 10.0 mi SSE 3.5 mph 16.1 mph N/A   Clear
1:55 PM 64.4 °F 32.0 °F 30% 30.27 in 10.0 mi SE 8.1 mph 17.3 mph N/A   Clear
2:15 PM 64.4 °F 30.2 °F 28% 30.26 in 10.0 mi SE 4.6 mph 16.1 mph N/A   Clear
2:35 PM 66.2 °F 32.0 °F 28% 30.25 in 10.0 mi ESE 6.9 mph - N/A   Clear
2:55 PM 68.0 °F 32.0 °F 26% 30.23 in 10.0 mi ENE 6.9 mph - N/A   Clear
3:15 PM 68.0 °F 32.0 °F 26% 30.22 in 10.0 mi ENE 6.9 mph - N/A   Clear
3:35 PM 68.0 °F 30.2 °F 24% 30.21 in 10.0 mi East 6.9 mph - N/A   Clear
3:55 PM 68.0 °F 30.2 °F 24% 30.21 in 10.0 mi East 8.1 mph 19.6 mph N/A   Clear
4:15 PM 68.0 °F 28.4 °F 23% 30.21 in 10.0 mi SE 10.4 mph - N/A   Clear
4:35 PM 66.2 °F 28.4 °F 24% 30.21 in 10.0 mi Calm Calm - N/A   Clear
4:55 PM 66.2 °F 28.4 °F 24% 30.22 in 10.0 mi Calm Calm - N/A   Clear
5:15 PM 68.0 °F 32.0 °F 26% 30.21 in 10.0 mi Calm Calm - N/A   Clear
5:35 PM 68.0 °F 30.2 °F 24% 30.22 in 10.0 mi Calm Calm - N/A   Clear
5:55 PM 68.0 °F 30.2 °F 24% 30.22 in 10.0 mi Calm Calm - N/A   Clear
6:15 PM 66.2 °F 28.4 °F 24% 30.23 in 10.0 mi Calm Calm - N/A   Clear
6:35 PM 64.4 °F 28.4 °F 26% 30.24 in 10.0 mi Calm Calm - N/A   Clear
6:55 PM 64.4 °F 28.4 °F 26% 30.24 in 10.0 mi Calm Calm - N/A   Clear
7:15 PM 62.6 °F 28.4 °F 27% 30.25 in 10.0 mi Calm Calm - N/A   Clear
7:35 PM 62.6 °F 30.2 °F 30% 30.25 in 10.0 mi Calm Calm - N/A   Clear
7:55 PM 60.8 °F 32.0 °F 34% 30.26 in 10.0 mi Calm Calm - 0.01 in   Clear
8:15 PM 60.8 °F 32.0 °F 34% 30.26 in 10.0 mi Calm Calm - N/A   Clear
8:35 PM 60.8 °F 32.0 °F 34% 30.27 in 10.0 mi East 4.6 mph - N/A   Clear
8:55 PM 59.0 °F 32.0 °F 36% 30.27 in 10.0 mi East 5.8 mph - N/A   Clear
9:15 PM 59.0 °F 32.0 °F 36% 30.27 in 10.0 mi East 5.8 mph - N/A   Clear
9:35 PM 59.0 °F 32.0 °F 36% 30.27 in 10.0 mi East 3.5 mph - N/A   Clear
9:55 PM 59.0 °F 33.8 °F 39% 30.27 in 10.0 mi East 5.8 mph - N/A   Clear
10:15 PM 59.0 °F 33.8 °F 39% 30.27 in 10.0 mi East 6.9 mph - N/A   Clear
10:35 PM 57.2 °F 33.8 °F 41% 30.27 in 10.0 mi Calm Calm - N/A   Clear
10:55 PM 55.4 °F 33.8 °F 44% 30.27 in 10.0 mi Calm Calm - N/A   Clear
11:15 PM 55.4 °F 33.8 °F 44% 30.27 in 10.0 mi Calm Calm - N/A   Clear
11:35 PM 55.4 °F 33.8 °F 44% 30.27 in 10.0 mi Calm Calm - N/A   Clear
11:55 PM 55.4 °F 33.8 °F 44% 30.27 in 10.0 mi Calm Calm - N/A   Clear